Minot, ND

5:05 PM CST on January 21, 2018 (GMT -0600)
Minot International

Weather History for KMOT - September, 2014

Change the Weather History Date:

Monday, September 8, 2014

  Actual Average Record
Temperature  
Mean Temperature 61 °F 61 °F  
Max Temperature 71 °F 73 °F 101 °F (1906)
Min Temperature 50 °F 49 °F 32 °F (1920)
Degree Days  
Heating Degree Days 4 6  
Month to date heating degree days 25 37  
Since 1 July heating degree days 93 108  
Cooling Degree Days 0 2  
Month to date cooling degree days 0 17  
Year to date cooling degree days 305 428  
Growing Degree Days 10 (Base 50)    
Moisture  
Dew Point 50 °F    
Average Humidity 69    
Maximum Humidity 86    
Minimum Humidity 52    
Precipitation  
Precipitation 0.00 in 0.05 in 2.64 in (2009)
Month to date precipitation 0.29 0.41  
Year to date precipitation 14.93 13.85  
Sea Level Pressure  
Sea Level Pressure 29.74 in    
Wind  
Wind Speed 13 mph (NNW)    
Max Wind Speed 21 mph    
Max Gust Speed 27 mph    
Visibility 10 miles    
Events      
T = Trace of Precipitation, MM = Missing Value Source: NWS Daily Summary

Daily Weather History Graph

Daily Weather History Graph

Search for Another Location

Airport or City:

Trip Planner

Search our weather history database for the weather conditions in past years. The results will help you decide how hot, cold, wet, or windy it might be!

Date:

Astronomy

Sep. 08, 2014 Rise Set
Actual Time 7:12 AM CDT 8:12 PM CDT
Civil Twilight 6:40 AM CDT 8:43 PM CDT
Nautical Twilight 6:02 AM CDT 9:21 PM CDT
Astronomical Twilight 5:21 AM CDT 10:02 PM CDT
Moon 7:50 PM CDT (9/8) 6:39 AM CDT (9/8)
Length of Visible Light 14h 03m
Length of Day
12h 59m
Full, 100% of the Moon is Illuminated
Sep 8
Full
Sep 8
Full
Sep 15
Last Quarter
Sep 24
New
Oct 1
First Quarter

Hourly Weather History & Observations

Time (CDT) Temp. Dew Point Humidity Pressure Visibility Wind Dir Wind Speed Gust Speed Precip Events Conditions
12:54 AM 55.9 °F 51.1 °F 84% 29.64 in 10.0 mi Calm Calm - N/A   Clear
1:54 AM 57.0 °F 52.0 °F 83% 29.62 in 10.0 mi NNE 3.5 mph - N/A   Clear
2:54 AM 64.9 °F 53.1 °F 65% 29.59 in 10.0 mi Variable 4.6 mph - N/A   Clear
3:54 AM 66.0 °F 53.1 °F 63% 29.58 in 10.0 mi SSW 15.0 mph 21.9 mph N/A   Clear
4:54 AM 61.0 °F 53.1 °F 75% 29.59 in 10.0 mi SW 12.7 mph - N/A   Clear
5:54 AM 60.1 °F 52.0 °F 75% 29.59 in 10.0 mi SW 12.7 mph - N/A   Clear
6:54 AM 59.0 °F 50.0 °F 72% 29.59 in 10.0 mi SW 12.7 mph - N/A   Clear
7:54 AM 59.0 °F 48.0 °F 67% 29.60 in 10.0 mi SW 10.4 mph - N/A   Clear
8:54 AM 64.9 °F 46.9 °F 52% 29.63 in 10.0 mi West 11.5 mph - N/A   Clear
9:54 AM 66.9 °F 48.0 °F 51% 29.64 in 10.0 mi WNW 10.4 mph - N/A   Clear
10:54 AM 66.0 °F 51.1 °F 59% 29.65 in 10.0 mi WNW 10.4 mph - N/A   Clear
11:54 AM 66.9 °F 54.0 °F 63% 29.68 in 10.0 mi WNW 11.5 mph - N/A   Clear
12:54 PM 68.0 °F 54.0 °F 61% 29.70 in 10.0 mi NW 10.4 mph - N/A   Clear
1:54 PM 70.0 °F 54.0 °F 57% 29.70 in 10.0 mi North 13.8 mph 20.7 mph N/A   Clear
2:54 PM 64.9 °F 54.0 °F 68% 29.73 in 10.0 mi North 17.3 mph - N/A   Scattered Clouds
3:10 PM 64.0 °F 53.1 °F 67% 29.74 in 10.0 mi North 18.4 mph 24.2 mph N/A   Mostly Cloudy
3:54 PM 63.0 °F 52.0 °F 67% 29.76 in 10.0 mi NW 15.0 mph - N/A   Overcast
4:54 PM 64.9 °F 52.0 °F 63% 29.78 in 10.0 mi NNW 17.3 mph 20.7 mph N/A   Overcast
5:54 PM 61.0 °F 52.0 °F 72% 29.80 in 10.0 mi NNW 17.3 mph - N/A   Overcast
6:54 PM 59.0 °F 51.1 °F 75% 29.83 in 10.0 mi North 15.0 mph 26.5 mph N/A   Overcast
7:54 PM 57.0 °F 50.0 °F 77% 29.85 in 10.0 mi North 16.1 mph - N/A   Overcast
8:54 PM 55.9 °F 48.0 °F 75% 29.88 in 10.0 mi North 13.8 mph - N/A   Overcast
9:54 PM 54.0 °F 48.0 °F 80% 29.90 in 10.0 mi NNE 15.0 mph - N/A   Overcast
10:11 PM 53.1 °F 48.9 °F 86% 29.90 in 9.0 mi NNE 15.0 mph - N/A   Overcast
10:41 PM 51.1 °F 48.0 °F 89% 29.91 in 10.0 mi NNE 12.7 mph 21.9 mph N/A   Overcast
10:54 PM 52.0 °F 46.9 °F 83% 29.92 in 10.0 mi NNE 12.7 mph - N/A   Overcast
11:21 PM 51.1 °F 46.0 °F 83% 29.92 in 10.0 mi NNE 12.7 mph - N/A   Overcast
11:42 PM 51.8 °F 44.6 °F 76% 29.93 in 10.0 mi NNE 13.8 mph - N/A   Overcast
11:54 PM 51.1 °F 45.0 °F 80% 29.94 in 10.0 mi NNE 12.7 mph - N/A   Overcast